129  
ASUS43 KMPX 020910  
RWRMN  
WEATHER ROUNDUP FOR MINNESOTA  
NATIONAL WEATHER SERVICE TWIN CITIES/CHANHASSEN MN  
400 AM CDT SAT JUL 02 2016  
 
NOTE: "FAIR" INDICATES FEW OR NO CLOUDS BELOW 12,000 FEET WITH NO  
SIGNIFICANT WEATHER AND/OR S TO VISIBILITY
. N/A MEANS  
CURRENT SKY AND/OR WEATHER CONDITIONS ARE NOT AVAILABLE.  
 
MNZ060>063-068>070-021000-  
TWIN CITIES METRO  
 
CITY SKY/WX TMP DP RH WIND PRES REMARKS
 
TWIN CITIES CLOUDY 61 51 70 SE3 30.12R  
ST PAUL PTCLDY 58 55 90 CALM 30.12S  
CRYSTAL PTCLDY 56 49 77 CALM 30.10S  
BLAINE MOCLDY 55 54 94 CALM 30.12R  
LAKEVILLE PTCLDY 52 52 100 CALM 30.11S  
EDEN PRAIRIE PTCLDY 57 51 80 CALM 30.11R  
LAKEVILLE PTCLDY 52 52 100 CALM 30.11S  
SOUTH ST PAUL PTCLDY 57 54 88 CALM 30.12S  
LAKE ELMO FAIR 52 52 100 CALM 30.13R  

 
MNZ001>005-007-008-013>017-022>024-027-028-021000-  
NORTHWEST MINNESOTA  
 
CITY SKY/WX TMP DP RH WIND PRES REMARKS
 
BEMIDJI CLOUDY 53 49 87 CALM 30.11S  
HALLOCK PTCLDY 55 52 88 E3 30.07R  
ROSEAU PTCLDY 54 48 82 CALM 30.09S  
WARROAD PTCLDY 54 52 94 CALM 30.10S  
THIEF RVR FALL MOCLDY 57 48 72 SE5 30.09S  
CROOKSTON CLOUDY 55 48 76 SE6 30.08S  
FOSSTON CLOUDY 55 52 88 SE3 30.10S  
DETROIT LAKES CLOUDY 61 52 72 SE5 30.10S  
MOORHEAD CLOUDY 61 52 72 SE5 30.07S  
PARK RAPIDS MOCLDY 59 47 64 SE6 30.10F  
MAHNOMEN FAIR 57 50 77 SE3 30.09S  

 
MNZ006-009>011-018-025>026-021000-  
NORTH CENTRAL MINNESOTA  
 
CITY SKY/WX TMP DP RH WIND PRES REMARKS
 
BAUDETTE CLOUDY 52 50 93 CALM 30.09S  
FLAG ISLAND MOCLDY 61 54 77 N5 30.08S  
INTL FALLS MOCLDY 44 43 96 CALM 30.10S  
WASKISH CLOUDY 52 48 87 CALM 30.10S  
BIG FORK CLOUDY 46 45 93 CALM 30.11F  
LONGVILLE CLOUDY 52 50 93 CALM 30.11S  
GRAND RAPIDS CLOUDY 51 49 92 CALM 30.13F  
CRANE LAKE PTCLDY 43 43 100 CALM 30.13S  
ORR MOCLDY 48 46 93 CALM 30.09S  
COOK PTCLDY 46 46 100 CALM 30.12S  
WALKER FAIR 53 48 83 CALM 30.11S  

 
MNZ012-019>021-037-021000-  
NORTHEAST MINNESOTA  
 
CITY SKY/WX TMP DP RH WIND PRES REMARKS
 
DULUTH PTCLDY 53 49 86 CALM 30.11F  
ELY PTCLDY 45 45 100 CALM 30.11S  
HIBBING CLOUDY 43 43 100 CALM 30.12S  
EVELETH CLOUDY 47 46 96 CALM 30.12S  
DULUTH HARBOR PTCLDY 57 52 82 SW3 30.11S  
TWO HARBORS PTCLDY 59 50 72 NW5 30.09S  
SILVER BAY PTCLDY 46 45 93 CALM 30.09S  
GRAND MARAIS N/A 63 44 50 N12G21 30.06R  
G MARAIS ARPRT CLEAR 52 43 71 NW5 30.11F  

 
MNZ029>031-032-039>041-046>048-054>057-064-021000-  
WEST CENTRAL MINNESOTA  
 
CITY SKY/WX TMP DP RH WIND PRES REMARKS
 
FERGUS FALLS CLOUDY 64 52 63 SE7 30.04S  
WHEATON CLOUDY 61 54 77 SE7 30.07F  
MORRIS CLOUDY 54 52 94 SE6 30.08S  
ALEXANDRIA PTCLDY 59 48 67 SE3 30.11F  
ELBOW LAKE MOCLDY 61 51 70 SE7 30.08F  
WADENA CLOUDY 55 50 82 CALM 30.10S  
GLENWOOD CLOUDY 55 52 88 E5 30.10F  
APPLETON CLOUDY 61 52 72 SE6 30.07F  
BENSON CLOUDY 59 48 67 S5 30.09S  
ORTONVILLE CLOUDY 59 52 77 SE5 30.07F  
MADISON CLEAR 54 50 87 SE3 30.08S  
WILLMAR FAIR 57 54 88 SE5 30.11S  

 
MNZ033>034-036-042>043-049>051-058-059-021000-  
CENTRAL MINNESOTA  
 
CITY SKY/WX TMP DP RH WIND PRES REMARKS
 
ST CLOUD CLOUDY 53 50 89 CALM 30.11F  
SAUK CENTRE FAIR 54 51 90 CALM 30.11S  
PAYNESVILLE MOCLDY 55 53 91 CALM 30.11F  
AITKIN CLOUDY 54 48 82 CALM 30.10S  
PINE RIVER CLOUDY 54 50 87 CALM 30.14S  
BRAINERD CLOUDY 57 50 77 CALM 30.12S  
STAPLES PTCLDY 55 50 82 CALM 30.11S  
LONG PRAIRIE FAIR 55 52 88 CALM 30.11F  
LITTLE FALLS CLOUDY 52 48 87 CALM 30.11S  
LITCHFIELD CLOUDY 57 55 94 CALM 30.11S  
BUFFALO PTCLDY 54 49 85 CALM 30.12F  
HUTCHINSON PTCLDY 58 54 86 CALM 30.11F  

 
MNZ037-044-045-052-053-021000-  
EAST CENTRAL MINNESOTA  
 
CITY SKY/WX TMP DP RH WIND PRES REMARKS
 
PRINCETON CLOUDY 54 52 94 CALM 30.12S  
MORA CLOUDY 50 50 100 CALM 30.14S  
CAMBRIDGE CLOUDY 55 46 71 CALM 30.10F  
RUSH CITY CLOUDY 52 50 95 CALM 30.12S  
MOOSE LAKE PTCLDY 50 48 93 CALM 30.11S  
HINCKLEY FAIR 48 48 100 CALM 30.12S  
CLOQUET MOCLDY 50 46 87 CALM 30.12S  
MCGREGOR CLOUDY 52 50 93 CALM 30.12F  

 
MNZ071>073-080-081-089-090-097-098-021000-  
SOUTHWEST MINNESOTA  
 
CITY SKY/WX TMP DP RH WIND PRES REMARKS
 
MONTEVIDEO CLEAR 54 52 94 S6 30.10S  
GRANITE FALLS CLEAR 58 53 83 E3 30.10S  
CANBY CLEAR 54 53 94 CALM 30.09S  
MARSHALL CLEAR 57 53 86 SE7 30.08F  
REDWOOD FALLS CLEAR 57 51 80 SE5 30.09F  
OLIVIA MOCLDY 57 50 77 SE3 30.09S  
PIPESTONE CLOUDY 59 54 82 SE5 30.08F  
WINDOM PTCLDY 61 54 77 SE6 30.11S  
WORTHINGTON PTCLDY 60 56 86 SE5 30.10S  
JACKSON CLOUDY 61 52 72 S6 30.11R  
TRACY CLEAR 60 55 82 S6 30.09S  
SLAYTON PTCLDY 57 55 92 SE3 30.11S  

 
MNZ065>067-074>077-082>085-091>093-021000-  
SOUTH CENTRAL MINNESOTA  
 
CITY SKY/WX TMP DP RH WIND PRES REMARKS
 
MANKATO PTCLDY 59 52 77 SE7 30.11S  
NEW ULM CLEAR 57 52 82 SE7 30.10S  
ST JAMES MOCLDY 54 50 87 CALM 30.12R  
FAIRMONT CLOUDY 59 52 77 S6 30.11R  
GLENCOE CLEAR 56 54 91 CALM 30.10F  
FARIBAULT CLOUDY 52 50 93 CALM 30.12S  
OWATONNA PTCLDY 55 52 88 SE3 30.12S  
WASECA PTCLDY 55 52 88 E6 30.12S  
ALBERT LEA CLOUDY 61 55 82 SE3 30.11F  

 
MNZ078>079-086>088-094>096-021000-  
SOUTHEAST MINNESOTA  
 
CITY SKY/WX TMP DP RH WIND PRES REMARKS
 
ROCHESTER CLOUDY 55 53 93 S7 30.13F  
RED WING CLEAR 52 52 100 CALM 30.11S  
STANTON CLEAR 53 50 91 CALM 30.10F  
DODGE CENTER PTCLDY 54 50 87 CALM 30.12F  
WINONA CLOUDY 55 55 100 CALM 30.13F  
AUSTIN CLOUDY 57 54 88 CALM 30.11F  
PRESTON CLOUDY 58 51 77 CALM 30.14F  

 
ABBREVIATIONS USED IN REMARKS  
TC - TEMPERATURES IN CELSIUS  
WCI - WIND CHILL INDEX  
HX - HEAT INDEX  
VSB - VISIBILITY  

 
 
 
CLICK HERE TO GO TO PREVIOUS BULLETINS.

The Nexlab MN Page Main Text Page